Date,Time,AIRTEMP,RAIN ,WNDSPD,WINDDIR,
ADT,ADT,DegC,.01/in,MPH,Deg,
1/1/2007,0:00,-38.6,,2.9,198,
1/1/2007,1:00,-39.4,,5.5,214,
1/1/2007,2:00,-39.9,,5.5,193,
1/1/2007,3:00,-40.4,,5.3,198,
1/1/2007,4:00,-39.9,,7.2,214,
1/1/2007,5:00,-38.8,,7.9,238,
1/1/2007,6:00,-38.6,,6.1,220,
1/1/2007,7:00,-38.6,,6.4,240,
1/1/2007,8:00,-39.4,,5.7,191,
1/1/2007,9:00,-39.2,,5.3,232,
1/1/2007,10:00,-40.0,,6.6,212,
1/1/2007,11:00,-40.4,,6.1,209,
1/1/2007,12:00,-40.7,,3.5,230,
1/1/2007,13:00,-40.9,,7.2,232,
1/1/2007,14:00,-41.6,,4.6,193,
1/1/2007,15:00,-42.3,,4.6,193,
1/1/2007,16:00,-42.3,,4.0,180,
1/1/2007,17:00,-42.1,,5.7,204,
1/1/2007,18:00,-42.6,,5.9,193,
1/1/2007,19:00,-42.4,,8.8,243,
1/1/2007,20:00,-42.2,,4.8,200,
1/1/2007,21:00,-42.4,,4.8,245,
1/1/2007,22:00,-41.4,,3.5,244,
1/1/2007,23:00,-41.1,,5.0,189,
1/2/2007,0:00,-39.8,,6.6,239,
1/2/2007,1:00,-38.4,,6.6,231,
1/2/2007,2:00,-37.7,,6.1,246,
1/2/2007,3:00,-37.2,,7.2,254,
1/2/2007,4:00,-37.4,,4.0,246,
1/2/2007,5:00,-37.6,,4.4,189,
1/2/2007,6:00,-38.0,,7.5,191,
1/2/2007,7:00,-37.9,,7.0,221,
1/2/2007,8:00,-37.0,,5.0,225,
1/2/2007,9:00,-37.2,,3.5,231,
1/2/2007,10:00,-37.8,,4.0,194,
1/2/2007,11:00,-38.5,,3.5,204,
1/2/2007,12:00,-39.8,,4.4,253,
1/2/2007,13:00,-40.4,,1.8,259,
1/2/2007,14:00,-41.0,,2.2,167,
1/2/2007,15:00,-40.9,,2.0,187,
1/2/2007,16:00,-42.0,,1.8,185,
1/2/2007,17:00,-42.1,,3.1,232,
1/2/2007,18:00,-42.0,,2.0,162,
1/2/2007,19:00,-41.9,,2.9,186,
1/2/2007,20:00,-42.8,,2.6,189,
1/2/2007,21:00,-43.4,,2.9,174,
1/2/2007,22:00,-43.7,,3.1,202,
1/2/2007,23:00,-43.8,,3.3,228,
1/3/2007,0:00,-43.6,,2.6,219,
1/3/2007,1:00,-43.4,,2.6,162,
1/3/2007,2:00,-43.6,,2.6,233,
1/3/2007,3:00,-42.1,,3.5,182,
1/3/2007,4:00,-40.3,,4.6,251,
1/3/2007,5:00,-39.1,,3.3,199,
1/3/2007,6:00,-38.0,,2.9,215,
1/3/2007,7:00,-37.6,,4.4,200,
1/3/2007,8:00,-37.7,,5.0,228,
1/3/2007,9:00,-38.7,,4.2,245,
1/3/2007,10:00,-39.2,,3.1,213,
1/3/2007,11:00,-41.2,,3.1,247,
1/3/2007,12:00,-41.0,,3.3,236,
1/3/2007,13:00,-39.7,,3.1,236,
1/3/2007,14:00,-42.0,,3.3,231,
1/3/2007,15:00,-42.1,,2.9,215,
1/3/2007,16:00,-41.9,,0.2,155,
1/3/2007,17:00,-38.6,,3.7,271,
1/3/2007,18:00,-37.9,,4.2,275,
1/3/2007,19:00,-37.8,,5.9,287,
1/3/2007,20:00,-38.2,,7.5,325,
1/3/2007,21:00,-37.5,,4.8,336,
1/3/2007,22:00,-37.4,,1.3,244,
1/3/2007,23:00,-36.7,,4.0,301,
1/4/2007,0:00,-35.7,,4.4,333,
1/4/2007,1:00,-34.6,,7.0,348,
1/4/2007,2:00,-33.5,,7.0,11,
1/4/2007,3:00,-32.7,,8.8,32,
1/4/2007,4:00,-32.7,,7.9,23,
1/4/2007,5:00,-32.3,,6.8,44,
1/4/2007,6:00,-32.6,,2.6,38,
1/4/2007,7:00,-33.4,,0.7,346,
1/4/2007,8:00,-31.9,,2.2,308,
1/4/2007,9:00,-29.5,,7.0,357,
1/4/2007,10:00,-29.3,,10.5,341,
1/4/2007,11:00,-29.3,,12.1,351,
1/4/2007,12:00,-27.6,,11.0,1,
1/4/2007,13:00,-25.9,,14.5,7,
1/4/2007,14:00,-24.3,,14.5,12,
1/4/2007,15:00,-23.5,,16.2,12,
1/4/2007,16:00,-22.9,,14.3,25,
1/4/2007,17:00,-22.3,,13.6,39,
1/4/2007,18:00,-23.5,,5.7,91,
1/4/2007,19:00,-24.3,,4.0,107,
1/4/2007,20:00,-24.8,,0.2,105,
1/4/2007,21:00,-24.5,,4.2,24,
1/4/2007,22:00,-23.6,,4.6,60,
1/4/2007,23:00,-23.5,,9.6,71,
1/5/2007,0:00,-24.1,,8.8,68,
1/5/2007,1:00,-24.5,,9.2,61,
1/5/2007,2:00,-25.1,,6.1,73,
1/5/2007,3:00,-25.3,,6.8,64,
1/5/2007,4:00,-26.1,,2.9,161,
1/5/2007,5:00,-26.2,,3.3,188,
1/5/2007,6:00,-26.2,,4.8,220,
1/5/2007,7:00,-25.4,,3.3,238,
1/5/2007,8:00,-21.4,,9.9,42,
1/5/2007,9:00,-21.2,,16.0,29,
1/5/2007,10:00,-22.9,,11.0,15,
1/5/2007,11:00,-22.3,,12.5,16,
1/5/2007,12:00,-21.8,,14.3,18,
1/5/2007,13:00,-21.8,,14.5,13,
1/5/2007,14:00,-22.1,,15.6,12,
1/5/2007,15:00,-23.6,,11.0,13,
1/5/2007,16:00,-23.2,,15.3,28,
1/5/2007,17:00,-23.7,,14.7,18,
1/5/2007,18:00,-23.3,,16.0,35,
1/5/2007,19:00,-23.7,,7.2,65,
1/5/2007,20:00,-24.2,,4.2,107,
1/5/2007,21:00,-25.7,,4.0,104,
1/5/2007,22:00,-26.6,,2.9,135,
1/5/2007,23:00,-26.4,,2.4,99,
1/6/2007,0:00,-26.0,,4.0,94,
1/6/2007,1:00,-26.0,,3.1,99,
1/6/2007,2:00,-26.2,,4.2,97,
1/6/2007,3:00,-26.3,,4.6,109,
1/6/2007,4:00,-26.6,,4.2,106,
1/6/2007,5:00,-30.5,,2.2,93,
1/6/2007,6:00,-31.9,,2.2,116,
1/6/2007,7:00,-33.5,,0.9,82,
1/6/2007,8:00,-35.1,,0.2,109,
1/6/2007,9:00,-36.1,,0.2,127,
1/6/2007,10:00,-36.4,,0.2,121,
1/6/2007,11:00,-37.1,,1.1,105,
1/6/2007,12:00,-37.7,,1.3,89,
1/6/2007,13:00,-38.5,,2.6,89,
1/6/2007,14:00,-38.9,,2.0,138,
1/6/2007,15:00,-39.4,,3.7,43,
1/6/2007,16:00,-39.9,,0.2,117,
1/6/2007,17:00,-40.1,,2.2,120,
1/6/2007,18:00,-40.5,,1.5,102,
1/6/2007,19:00,-41.0,,0.2,164,
1/6/2007,20:00,-41.4,,0.2,82,
1/6/2007,21:00,-40.8,,1.3,105,
1/6/2007,22:00,-39.9,,2.2,191,
1/6/2007,23:00,-40.3,,2.2,172,
1/7/2007,0:00,-40.4,,1.3,153,
1/7/2007,1:00,-40.7,,0.2,84,
1/7/2007,2:00,-39.8,,0.2,107,
1/7/2007,3:00,-39.7,,0.2,154,
1/7/2007,4:00,-39.5,,3.1,181,
1/7/2007,5:00,-39.7,,1.1,264,
1/7/2007,6:00,-39.6,,0.2,198,
1/7/2007,7:00,-40.0,,0.2,156,
1/7/2007,8:00,-40.1,,4.0,220,
1/7/2007,9:00,-39.2,,2.0,213,
1/7/2007,10:00,-38.8,,0.7,155,
1/7/2007,11:00,-38.9,,0.2,143,
1/7/2007,12:00,-39.2,,2.0,209,
1/7/2007,13:00,-38.5,,1.1,284,
1/7/2007,14:00,-37.1,,3.1,173,
1/7/2007,15:00,-36.5,,3.7,219,
1/7/2007,16:00,-37.0,,3.5,213,
1/7/2007,17:00,-36.3,,4.4,231,
1/7/2007,18:00,-33.6,,5.5,250,
1/7/2007,19:00,-32.0,,5.3,236,
1/7/2007,20:00,-30.0,,6.4,247,
1/7/2007,21:00,-29.5,,7.5,254,
1/7/2007,22:00,-28.8,,7.5,252,
1/7/2007,23:00,-28.6,,7.7,242,
1/8/2007,0:00,-29.2,,8.6,248,
1/8/2007,1:00,-29.7,,8.1,235,
1/8/2007,2:00,-29.9,,8.3,247,
1/8/2007,3:00,-30.4,,7.5,241,
1/8/2007,4:00,-30.5,,7.7,250,
1/8/2007,5:00,-30.6,,8.8,248,
1/8/2007,6:00,-31.1,,5.9,238,
1/8/2007,7:00,-31.7,,5.9,249,
1/8/2007,8:00,-33.7,,4.4,211,
1/8/2007,9:00,-34.3,,5.5,243,
1/8/2007,10:00,-35.0,,4.2,230,
1/8/2007,11:00,-35.7,,3.1,226,
1/8/2007,12:00,-37.1,,1.8,213,
1/8/2007,13:00,-38.1,,2.9,202,
1/8/2007,14:00,-38.4,,3.1,204,
1/8/2007,15:00,-39.3,,1.8,217,
1/8/2007,16:00,-40.0,,2.2,232,
1/8/2007,17:00,-40.2,,1.8,155,
1/8/2007,18:00,-40.7,,1.5,225,
1/8/2007,19:00,-41.1,,0.2,119,
1/8/2007,20:00,-41.0,,1.8,214,
1/8/2007,21:00,-41.4,,0.9,160,
1/8/2007,22:00,-41.3,,0.2,179,
1/8/2007,23:00,-41.1,,0.2,123,
1/9/2007,0:00,-41.4,,2.9,96,
1/9/2007,1:00,-41.4,,0.2,67,
1/9/2007,2:00,-41.2,,2.6,86,
1/9/2007,3:00,-41.2,,0.2,45,
1/9/2007,4:00,-40.9,,3.1,73,
1/9/2007,5:00,-40.4,,3.7,84,
1/9/2007,6:00,-40.1,,1.5,80,
1/9/2007,7:00,-39.4,,4.2,73,
1/9/2007,8:00,-39.0,,1.8,86,
1/9/2007,9:00,-38.6,,4.4,62,
1/9/2007,10:00,-38.3,,4.8,68,
1/9/2007,11:00,-36.9,,5.0,89,
1/9/2007,12:00,-35.5,,9.4,98,
1/9/2007,13:00,-33.9,,9.0,145,
1/9/2007,14:00,-33.0,,8.8,142,
1/9/2007,15:00,-33.5,,5.0,154,
1/9/2007,16:00,-33.3,,3.3,99,
1/9/2007,17:00,-32.1,,5.0,142,
1/9/2007,18:00,-30.8,,2.9,162,
1/9/2007,19:00,-29.9,,1.1,154,
1/9/2007,20:00,-28.2,,0.4,119,
1/9/2007,21:00,-26.7,,2.2,176,
1/9/2007,22:00,-26.8,,2.2,233,
1/9/2007,23:00,-27.4,,1.3,81,
1/10/2007,0:00,-26.9,,1.8,153,
1/10/2007,1:00,-26.0,,2.6,162,
1/10/2007,2:00,-25.0,,0.2,302,
1/10/2007,3:00,-24.4,,0.2,1,
1/10/2007,4:00,-24.2,,2.9,13,
1/10/2007,5:00,-23.7,,1.3,104,
1/10/2007,6:00,-23.4,,1.5,64,
1/10/2007,7:00,-23.3,,4.2,31,
1/10/2007,8:00,-23.7,,5.5,28,
1/10/2007,9:00,-22.9,,5.3,90,
1/10/2007,10:00,-22.8,,5.0,19,
1/10/2007,11:00,-24.9,,8.8,13,
1/10/2007,12:00,-25.5,,9.0,36,
1/10/2007,13:00,-24.8,,7.2,58,
1/10/2007,14:00,-24.2,,6.4,48,
1/10/2007,15:00,-23.4,,9.9,27,
1/10/2007,16:00,-22.7,,8.1,36,
1/10/2007,17:00,-22.5,,9.4,41,
1/10/2007,18:00,-22.8,,11.4,29,
1/10/2007,19:00,-22.8,,12.3,45,
1/10/2007,20:00,-22.9,,11.6,51,
1/10/2007,21:00,-23.3,,11.8,49,
1/10/2007,22:00,-23.7,,10.3,44,
1/10/2007,23:00,-24.1,,13.8,35,
1/11/2007,0:00,-24.6,,14.9,39,
1/11/2007,1:00,-24.4,,15.8,47,
1/11/2007,2:00,-24.2,,13.2,66,
1/11/2007,3:00,-23.9,,14.3,44,
1/11/2007,4:00,-23.6,,17.3,59,
1/11/2007,5:00,-23.8,,14.9,58,
1/11/2007,6:00,-24.0,,17.1,47,
1/11/2007,7:00,-23.9,,16.4,44,
1/11/2007,8:00,-24.4,,18.6,50,
1/11/2007,9:00,-24.7,,17.8,53,
1/11/2007,10:00,-24.9,,20.0,56,
1/11/2007,11:00,-25.1,,19.7,62,
1/11/2007,12:00,-25.7,,23.2,65,
1/11/2007,13:00,-26.1,,18.2,53,
1/11/2007,14:00,-26.6,,17.8,66,
1/11/2007,15:00,-26.9,,20.6,62,
1/11/2007,16:00,-27.5,,19.3,56,
1/11/2007,17:00,-27.7,,21.9,68,
1/11/2007,18:00,-28.1,,19.1,66,
1/11/2007,19:00,-28.2,,21.7,58,
1/11/2007,20:00,-28.2,,23.7,49,
1/11/2007,21:00,-28.7,,21.7,46,
1/11/2007,22:00,-28.9,,25.2,49,
1/11/2007,23:00,-29.5,,21.3,46,
1/12/2007,0:00,-30.3,,21.0,55,
1/12/2007,1:00,-31.0,,18.2,59,
1/12/2007,2:00,-31.0,,22.8,50,
1/12/2007,3:00,-31.1,,21.0,60,
1/12/2007,4:00,-31.3,,17.8,56,
1/12/2007,5:00,-31.3,,19.5,54,
1/12/2007,6:00,-31.2,,21.7,48,
1/12/2007,7:00,-31.0,,28.3,57,
1/12/2007,8:00,-30.9,,21.0,45,
1/12/2007,9:00,-30.7,,25.0,45,
1/12/2007,10:00,-30.3,,23.2,43,
1/12/2007,11:00,-30.0,,19.5,48,
1/12/2007,12:00,-29.6,,27.0,52,
1/12/2007,13:00,-29.2,,24.6,56,
1/12/2007,14:00,-28.8,,28.7,55,
1/12/2007,15:00,-28.4,,21.5,42,
1/12/2007,16:00,-28.0,,29.2,58,
1/12/2007,17:00,-27.9,,27.0,49,
1/12/2007,18:00,-28.1,,21.9,62,
1/12/2007,19:00,-28.0,,25.2,59,
1/12/2007,20:00,-27.6,,21.5,59,
1/12/2007,21:00,-27.3,,20.0,53,
1/12/2007,22:00,-27.2,,24.6,47,
1/12/2007,23:00,-27.0,,19.3,43,
1/13/2007,0:00,-26.7,,21.3,58,
1/13/2007,1:00,-26.5,,18.6,57,
1/13/2007,2:00,-26.2,,22.1,53,
1/13/2007,3:00,-26.1,,19.1,51,
1/13/2007,4:00,-26.0,,25.0,60,
1/13/2007,5:00,-26.3,,17.8,45,
1/13/2007,6:00,-26.2,,16.2,43,
1/13/2007,7:00,-26.5,,16.4,44,
1/13/2007,8:00,-26.4,,25.4,49,
1/13/2007,9:00,-26.4,,19.1,41,
1/13/2007,10:00,-26.3,,15.3,41,
1/13/2007,11:00,-26.5,,16.2,41,
1/13/2007,12:00,-26.6,,14.3,36,
1/13/2007,13:00,-26.5,,12.3,31,
1/13/2007,14:00,-26.8,,13.2,27,
1/13/2007,15:00,-27.0,,13.8,21,
1/13/2007,16:00,-26.8,,12.9,25,
1/13/2007,17:00,-27.0,,13.2,26,
1/13/2007,18:00,-26.9,,11.6,28,
1/13/2007,19:00,-27.5,,10.5,16,
1/13/2007,20:00,-27.7,,11.0,21,
1/13/2007,21:00,-27.7,,11.8,11,
1/13/2007,22:00,-27.5,,9.0,11,
1/13/2007,23:00,-27.3,,11.0,18,
1/14/2007,0:00,-26.9,,13.8,15,
1/14/2007,1:00,-27.0,,11.6,16,
1/14/2007,2:00,-27.3,,8.8,11,
1/14/2007,3:00,-27.6,,7.9,7,
1/14/2007,4:00,-27.9,,7.5,1,
1/14/2007,5:00,-28.8,,7.9,358,
1/14/2007,6:00,-25.8,,6.8,1,
1/14/2007,7:00,-25.9,,6.4,360,
1/14/2007,8:00,-26.1,,5.7,349,
1/14/2007,9:00,-25.3,,4.6,348,
1/14/2007,10:00,-23.9,,2.2,316,
1/14/2007,11:00,-23.3,,3.7,308,
1/14/2007,12:00,-23.4,,4.4,188,
1/14/2007,13:00,-23.0,,4.2,236,
1/14/2007,14:00,-22.6,,2.9,211,
1/14/2007,15:00,-22.0,,3.5,305,
1/14/2007,16:00,-22.0,,9.4,293,
1/14/2007,17:00,-22.5,,4.6,233,
1/14/2007,18:00,-22.4,,7.9,256,
1/14/2007,19:00,-22.5,,8.3,240,
1/14/2007,20:00,-22.9,,12.1,232,
1/14/2007,21:00,-23.9,,9.0,222,
1/14/2007,22:00,-24.0,,9.4,230,
1/14/2007,23:00,-24.6,,10.1,221,
1/15/2007,0:00,-24.9,,8.6,232,
1/15/2007,1:00,-25.4,,11.0,246,
1/15/2007,2:00,-25.8,,9.4,231,
1/15/2007,3:00,-26.5,,8.6,223,
1/15/2007,4:00,-26.7,,7.2,215,
1/15/2007,5:00,-27.0,,7.2,209,
1/15/2007,6:00,-27.4,,6.8,217,
1/15/2007,7:00,-28.0,,8.8,214,
1/15/2007,8:00,-29.1,,5.9,218,
1/15/2007,9:00,-30.9,,1.5,225,
1/15/2007,10:00,-32.2,,5.5,205,
1/15/2007,11:00,-32.6,,1.1,173,
1/15/2007,12:00,-32.9,,0.7,201,
1/15/2007,13:00,-32.9,,3.1,154,
1/15/2007,14:00,-31.3,,5.3,202,
1/15/2007,15:00,-30.3,,7.0,208,
1/15/2007,16:00,-30.0,,5.3,201,
1/15/2007,17:00,-29.5,,8.8,242,
1/15/2007,18:00,-30.5,,5.5,189,
1/15/2007,19:00,-31.0,,3.1,248,
1/15/2007,20:00,-31.6,,1.3,207,
1/15/2007,21:00,-31.5,,5.5,230,
1/15/2007,22:00,-31.5,,0.9,307,
1/15/2007,23:00,-31.9,,0.2,55,
1/16/2007,0:00,-31.7,,0.2,55,
1/16/2007,1:00,-30.2,,0.2,56,
1/16/2007,2:00,-29.4,,1.8,56,
1/16/2007,3:00,-28.8,,0.2,55,
1/16/2007,4:00,-29.1,,0.2,56,
1/16/2007,5:00,-29.2,,0.2,55,
1/16/2007,6:00,-30.6,,0.2,56,
1/16/2007,7:00,-30.7,,0.2,56,
1/16/2007,8:00,-30.8,,0.2,56,
1/16/2007,9:00,-29.4,,0.2,56,
1/16/2007,10:00,-27.7,,2.0,56,
1/16/2007,11:00,-26.7,,0.2,56,
1/16/2007,12:00,-26.5,,1.8,56,
1/16/2007,13:00,-27.9,,2.6,62,
1/16/2007,14:00,-30.5,,0.2,54,
1/16/2007,15:00,-31.7,,1.8,55,
1/16/2007,16:00,-32.2,,2.6,46,
1/16/2007,17:00,-32.9,,2.0,26,
1/16/2007,18:00,-33.6,,0.9,48,
1/16/2007,19:00,-33.9,,2.0,39,
1/16/2007,20:00,-34.4,,0.4,27,
1/16/2007,21:00,-34.6,,2.4,23,
1/16/2007,22:00,-34.7,,1.1,48,
1/16/2007,23:00,-34.6,,4.4,33,
1/17/2007,0:00,-34.0,,5.3,49,
1/17/2007,1:00,-33.0,,2.2,47,
1/17/2007,2:00,-34.4,,2.0,170,
1/17/2007,3:00,-35.0,,2.4,13,
1/17/2007,4:00,-35.4,,0.2,5,
1/17/2007,5:00,-35.5,,2.6,20,
1/17/2007,6:00,-35.2,,0.2,122,
1/17/2007,7:00,-35.0,,2.4,87,
1/17/2007,8:00,-35.2,,0.9,39,
1/17/2007,9:00,-34.8,,2.4,45,
1/17/2007,10:00,-34.6,,0.9,79,
1/17/2007,11:00,-34.3,,1.3,38,
1/17/2007,12:00,-33.8,,1.8,30,
1/17/2007,13:00,-33.8,,0.2,51,
1/17/2007,14:00,-33.5,,0.7,41,
1/17/2007,15:00,-32.9,,1.3,28,
1/17/2007,16:00,-32.1,,0.2,122,
1/17/2007,17:00,-31.6,,0.9,15,
1/17/2007,18:00,-31.5,,1.5,182,
1/17/2007,19:00,-31.7,,2.4,185,
1/17/2007,20:00,-31.9,,1.3,289,
1/17/2007,21:00,-32.3,,0.2,294,
1/17/2007,22:00,-32.8,,0.2,110,
1/17/2007,23:00,-33.2,,0.2,53,
1/18/2007,0:00,-33.1,,2.0,257,
1/18/2007,1:00,-33.1,,2.6,13,
1/18/2007,2:00,-32.6,,0.9,71,
1/18/2007,3:00,-32.8,,0.2,73,
1/18/2007,4:00,-32.3,,2.0,31,
1/18/2007,5:00,-31.5,,2.4,357,
1/18/2007,6:00,-30.8,,3.1,23,
1/18/2007,7:00,-28.9,,9.4,32,
1/18/2007,8:00,-27.3,,6.6,52,
1/18/2007,9:00,-26.4,,5.7,40,
1/18/2007,10:00,-25.8,,6.4,21,
1/18/2007,11:00,-25.1,,7.2,26,
1/18/2007,12:00,-24.8,,8.1,25,
1/18/2007,13:00,-24.0,,7.9,48,
1/18/2007,14:00,-25.0,,4.8,68,
1/18/2007,15:00,-25.8,,5.0,60,
1/18/2007,16:00,-26.5,,3.3,25,
1/18/2007,17:00,-27.1,,3.3,1,
1/18/2007,18:00,-27.2,,4.6,27,
1/18/2007,19:00,-27.3,,2.2,30,
1/18/2007,20:00,-28.2,,3.1,40,
1/18/2007,21:00,-28.1,,1.3,36,
1/18/2007,22:00,-27.8,,2.6,29,
1/18/2007,23:00,-27.0,,3.1,358,
1/19/2007,0:00,-25.3,,3.5,342,
1/19/2007,1:00,-24.4,,4.0,329,
1/19/2007,2:00,-24.5,,3.5,345,
1/19/2007,3:00,-24.4,,3.1,324,
1/19/2007,4:00,-23.8,,4.8,313,
1/19/2007,5:00,-22.9,,6.6,335,
1/19/2007,6:00,-22.3,,5.5,312,
1/19/2007,7:00,-21.6,,7.0,329,
1/19/2007,8:00,-21.0,,7.0,329,
1/19/2007,9:00,-20.4,,6.8,348,
1/19/2007,10:00,-20.1,,6.4,1,
1/19/2007,11:00,-20.3,,5.0,12,
1/19/2007,12:00,-20.4,,0.7,26,
1/19/2007,13:00,-20.7,,2.0,259,
1/19/2007,14:00,-20.4,,2.9,236,
1/19/2007,15:00,-20.4,,4.4,301,
1/19/2007,16:00,-20.1,,2.6,284,
1/19/2007,17:00,-19.9,,2.4,239,
1/19/2007,18:00,-19.7,,4.8,214,
1/19/2007,19:00,-19.7,,5.5,241,
1/19/2007,20:00,-19.4,,5.3,220,
1/19/2007,21:00,-18.6,,8.3,228,
1/19/2007,22:00,-17.7,,7.2,255,
1/19/2007,23:00,-17.6,,12.3,230,
1/20/2007,0:00,-17.9,,15.3,239,
1/20/2007,1:00,-19.8,,13.8,243,
1/20/2007,2:00,-18.7,,15.3,245,
1/20/2007,3:00,-19.2,,16.0,251,
1/20/2007,4:00,-19.2,,17.5,244,
1/20/2007,5:00,-18.7,,14.3,267,
1/20/2007,6:00,-18.9,,16.9,253,
1/20/2007,7:00,-19.4,,18.4,266,
1/20/2007,8:00,-19.6,,18.0,264,
1/20/2007,9:00,-20.0,,12.5,273,
1/20/2007,10:00,-20.6,,13.4,265,
1/20/2007,11:00,-21.8,,9.4,248,
1/20/2007,12:00,-23.5,,10.3,247,
1/20/2007,13:00,-24.3,,10.5,254,
1/20/2007,14:00,-24.5,,9.2,247,
1/20/2007,15:00,-25.0,,8.1,234,
1/20/2007,16:00,-25.3,,6.8,256,
1/20/2007,17:00,-25.6,,4.6,238,
1/20/2007,18:00,-25.0,,5.3,271,
1/20/2007,19:00,-24.4,,6.4,311,
1/20/2007,20:00,-24.1,,6.8,338,
1/20/2007,21:00,-24.1,,6.1,348,
1/20/2007,22:00,-23.8,,4.6,1,
1/20/2007,23:00,-23.6,,3.3,16,
1/21/2007,0:00,-23.9,,4.0,16,
1/21/2007,1:00,-24.8,,3.1,26,
1/21/2007,2:00,-25.6,,1.1,13,
1/21/2007,3:00,-27.2,,5.0,352,
1/21/2007,4:00,-28.4,,6.6,3,
1/21/2007,5:00,-28.2,,5.7,11,
1/21/2007,6:00,-29.1,,8.3,358,
1/21/2007,7:00,-29.2,,5.5,7,
1/21/2007,8:00,-29.9,,6.4,0,
1/21/2007,9:00,-29.6,,5.0,25,
1/21/2007,10:00,-29.4,,6.6,360,
1/21/2007,11:00,-30.4,,4.8,1,
1/21/2007,12:00,-31.4,,0.2,28,
1/21/2007,13:00,-31.2,,0.2,12,
1/21/2007,14:00,-29.0,,6.1,343,
1/21/2007,15:00,-27.1,,5.5,345,
1/21/2007,16:00,-26.3,,5.0,360,
1/21/2007,17:00,-24.9,,7.0,12,
1/21/2007,18:00,-24.4,,5.3,23,
1/21/2007,19:00,-24.4,,4.6,17,
1/21/2007,20:00,-24.1,,4.2,24,
1/21/2007,21:00,-24.0,,4.4,4,
1/21/2007,22:00,-23.8,,4.6,15,
1/21/2007,23:00,-23.6,,3.5,3,
1/22/2007,0:00,-23.4,,8.8,17,
1/22/2007,1:00,-23.3,,6.1,26,
1/22/2007,2:00,-23.1,,5.3,22,
1/22/2007,3:00,-22.8,,5.9,1,
1/22/2007,4:00,-22.5,,3.7,17,
1/22/2007,5:00,-22.0,,2.9,359,
1/22/2007,6:00,-21.7,,4.0,321,
1/22/2007,7:00,-21.5,,3.7,319,
1/22/2007,8:00,-21.1,,4.4,324,
1/22/2007,9:00,-20.9,,4.8,335,
1/22/2007,10:00,-20.3,,6.8,2,
1/22/2007,11:00,-20.3,,5.7,13,
1/22/2007,12:00,-20.2,,5.9,0,
1/22/2007,13:00,-20.1,,5.9,15,
1/22/2007,14:00,-20.2,,5.9,30,
1/22/2007,15:00,-20.3,,6.6,5,
1/22/2007,16:00,-21.0,,7.9,10,
1/22/2007,17:00,-21.5,,5.5,30,
1/22/2007,18:00,-21.6,,7.9,15,
1/22/2007,19:00,-21.8,,5.3,11,
1/22/2007,20:00,-21.8,,5.7,23,
1/22/2007,21:00,-21.8,,7.5,26,
1/22/2007,22:00,-22.4,,6.8,4,
1/22/2007,23:00,-23.5,,7.7,7,
1/23/2007,0:00,-24.5,,3.3,6,
1/23/2007,1:00,-25.7,,3.5,354,
1/23/2007,2:00,-25.6,,2.2,356,
1/23/2007,3:00,-25.4,,0.2,39,
1/23/2007,4:00,-25.5,,1.5,347,
1/23/2007,5:00,-24.8,,3.1,22,
1/23/2007,6:00,-24.2,,2.0,23,
1/23/2007,7:00,-23.7,,3.7,0,
1/23/2007,8:00,-23.3,,3.5,23,
1/23/2007,9:00,-23.2,,2.9,22,
1/23/2007,10:00,-23.0,,3.7,58,
1/23/2007,11:00,-23.1,,2.4,36,
1/23/2007,12:00,-22.8,,2.2,18,
1/23/2007,13:00,-22.6,,2.2,355,
1/23/2007,14:00,-21.7,,6.1,23,
1/23/2007,15:00,-21.9,,4.2,16,
1/23/2007,16:00,-22.6,,6.6,11,
1/23/2007,17:00,-23.0,,7.0,19,
1/23/2007,18:00,-23.9,,7.9,26,
1/23/2007,19:00,-25.7,,6.6,26,
1/23/2007,20:00,-26.2,,7.7,14,
1/23/2007,21:00,-26.1,,6.8,32,
1/23/2007,22:00,-26.2,,7.2,34,
1/23/2007,23:00,-26.1,,6.8,35,
1/24/2007,0:00,-26.6,,7.5,38,
1/24/2007,1:00,-27.6,,6.4,29,
1/24/2007,2:00,-27.2,,6.1,26,
1/24/2007,3:00,-27.1,,7.2,24,
1/24/2007,4:00,-27.2,,6.4,23,
1/24/2007,5:00,-27.1,,6.8,18,
1/24/2007,6:00,-26.3,,7.9,30,
1/24/2007,7:00,-25.4,,8.8,38,
1/24/2007,8:00,-24.9,,7.9,31,
1/24/2007,9:00,-24.4,,7.9,20,
1/24/2007,10:00,-24.0,,6.4,43,
1/24/2007,11:00,-23.7,,9.4,40,
1/24/2007,12:00,-23.7,,8.6,40,
1/24/2007,13:00,-23.8,,8.1,35,
1/24/2007,14:00,-23.8,,9.0,28,
1/24/2007,15:00,-24.4,,6.6,36,
1/24/2007,16:00,-24.0,,7.7,26,
1/24/2007,17:00,-24.0,,8.8,14,
1/24/2007,18:00,-24.2,,5.7,32,
1/24/2007,19:00,-24.2,,8.1,1,
1/24/2007,20:00,-24.0,,7.0,345,
1/24/2007,21:00,-23.6,,7.9,334,
1/24/2007,22:00,-23.2,,8.8,329,
1/24/2007,23:00,-22.8,,9.9,327,
1/25/2007,0:00,-22.4,,8.6,329,
1/25/2007,1:00,-22.0,,7.2,324,
1/25/2007,2:00,-22.1,,9.4,323,
1/25/2007,3:00,-23.6,,7.7,315,
1/25/2007,4:00,-25.3,,9.0,298,
1/25/2007,5:00,-24.3,,8.3,300,
1/25/2007,6:00,-24.1,,9.2,290,
1/25/2007,7:00,-24.0,,7.7,290,
1/25/2007,8:00,-25.2,,7.2,282,
1/25/2007,9:00,-27.0,,5.9,280,
1/25/2007,10:00,-29.2,,5.0,239,
1/25/2007,11:00,-30.0,,4.6,254,
1/25/2007,12:00,-29.2,,5.9,249,
1/25/2007,13:00,-30.9,,5.7,261,
1/25/2007,14:00,-30.7,,5.5,203,
1/25/2007,15:00,-32.1,,1.3,132,
1/25/2007,16:00,-34.0,,1.8,196,
1/25/2007,17:00,-34.9,,2.4,198,
1/25/2007,18:00,-33.4,,2.4,240,
1/25/2007,19:00,-32.5,,1.5,133,
1/25/2007,20:00,-31.4,,1.3,72,
1/25/2007,21:00,-32.4,,0.2,75,
1/25/2007,22:00,-33.7,,0.7,136,
1/25/2007,23:00,-34.4,,2.2,360,
1/26/2007,0:00,-34.5,,2.6,1,
1/26/2007,1:00,-34.2,,0.2,109,
1/26/2007,2:00,-33.1,,0.2,45,
1/26/2007,3:00,-32.1,,3.1,19,
1/26/2007,4:00,-31.0,,2.0,26,
1/26/2007,5:00,-29.9,,2.2,43,
1/26/2007,6:00,-30.2,,3.3,12,
1/26/2007,7:00,-29.7,,6.8,12,
1/26/2007,8:00,-28.8,,5.9,12,
1/26/2007,9:00,-27.7,,5.5,23,
1/26/2007,10:00,-27.1,,7.7,16,
1/26/2007,11:00,-26.6,,6.8,29,
1/26/2007,12:00,-25.7,,8.8,19,
1/26/2007,13:00,-25.8,,9.9,17,
1/26/2007,14:00,-24.6,,9.9,24,
1/26/2007,15:00,-25.1,,6.8,25,
1/26/2007,16:00,-25.0,,8.8,23,
1/26/2007,17:00,-24.8,,8.3,17,
1/26/2007,18:00,-24.2,,9.2,35,
1/26/2007,19:00,-24.0,,14.7,31,
1/26/2007,20:00,-24.1,,13.8,40,
1/26/2007,21:00,-23.9,,11.0,32,
1/26/2007,22:00,-23.7,,11.0,23,
1/26/2007,23:00,-23.3,,15.6,25,
1/27/2007,0:00,-23.3,,12.1,38,
1/27/2007,1:00,-24.3,,7.0,37,
1/27/2007,2:00,-25.6,,6.8,9,
1/27/2007,3:00,-25.9,,8.3,27,
1/27/2007,4:00,-24.9,,8.6,38,
1/27/2007,5:00,-24.0,,11.0,49,
1/27/2007,6:00,-23.9,,11.4,49,
1/27/2007,7:00,-24.1,,15.3,41,
1/27/2007,8:00,-23.6,,9.4,35,
1/27/2007,9:00,-23.3,,12.9,45,
1/27/2007,10:00,-23.1,,10.1,47,
1/27/2007,11:00,-23.0,,9.4,48,
1/27/2007,12:00,-23.1,,5.3,64,
1/27/2007,13:00,-23.0,,5.7,74,
1/27/2007,14:00,-22.7,,4.2,64,
1/27/2007,15:00,-22.5,,5.3,79,
1/27/2007,16:00,-22.2,,2.4,83,
1/27/2007,17:00,-22.1,,4.4,79,
1/27/2007,18:00,-21.9,,2.6,54,
1/27/2007,19:00,-21.6,,3.1,356,
1/27/2007,20:00,-21.2,,4.2,360,
1/27/2007,21:00,-21.2,,2.2,23,
1/27/2007,22:00,-22.3,,2.9,5,
1/27/2007,23:00,-22.9,,0.2,82,
1/28/2007,0:00,-21.7,,3.1,86,
1/28/2007,1:00,-20.7,,5.0,52,
1/28/2007,2:00,-20.2,,7.2,26,
1/28/2007,3:00,-20.0,,8.1,50,
1/28/2007,4:00,-19.7,,6.8,52,
1/28/2007,5:00,-19.7,,10.3,33,
1/28/2007,6:00,-20.1,,10.3,33,
1/28/2007,7:00,-19.8,,14.7,41,
1/28/2007,8:00,-19.6,,10.7,29,
1/28/2007,9:00,-19.8,,11.8,52,
1/28/2007,10:00,-19.9,,12.7,46,
1/28/2007,11:00,-19.5,,15.3,39,
1/28/2007,12:00,-19.8,,12.9,49,
1/28/2007,13:00,-19.9,,14.5,43,
1/28/2007,14:00,-19.9,,16.2,55,
1/28/2007,15:00,-19.2,,15.3,47,
1/28/2007,16:00,-19.2,,14.9,60,
1/28/2007,17:00,-18.2,,20.6,51,
1/28/2007,18:00,-18.0,,23.5,58,
1/28/2007,19:00,-18.0,,20.8,54,
1/28/2007,20:00,-17.8,,17.5,56,
1/28/2007,21:00,-17.9,,14.5,66,
1/28/2007,22:00,-17.9,,18.6,68,
1/28/2007,23:00,-18.0,,14.5,73,
1/29/2007,0:00,-17.9,,13.6,74,
1/29/2007,1:00,-17.7,,15.6,71,
1/29/2007,2:00,-17.4,,13.2,74,
1/29/2007,3:00,-17.2,,11.4,78,
1/29/2007,4:00,-16.7,,7.9,105,
1/29/2007,5:00,-16.4,,9.2,101,
1/29/2007,6:00,-15.9,,9.4,109,
1/29/2007,7:00,-15.9,,4.0,128,
1/29/2007,8:00,-16.6,,3.7,71,
1/29/2007,9:00,-17.8,,3.3,39,
1/29/2007,10:00,-17.5,,1.5,65,
1/29/2007,11:00,-18.7,,1.8,330,
1/29/2007,12:00,-19.5,,3.1,355,
1/29/2007,13:00,-17.8,,1.5,303,
1/29/2007,14:00,-17.2,,2.0,170,
1/29/2007,15:00,-17.1,,4.8,230,
1/29/2007,16:00,-18.2,,5.0,245,
1/29/2007,17:00,-18.3,,4.2,280,
1/29/2007,18:00,-18.5,,4.6,272,
1/29/2007,19:00,-18.5,,3.3,298,
1/29/2007,20:00,-18.6,,4.0,219,
1/29/2007,21:00,-17.9,,4.0,310,
1/29/2007,22:00,-16.6,,2.6,349,
1/29/2007,23:00,-16.6,,9.6,342,
1/30/2007,0:00,-16.7,,5.9,27,
1/30/2007,1:00,-16.6,,3.1,358,
1/30/2007,2:00,-16.1,,5.0,16,
1/30/2007,3:00,-15.9,,7.0,5,
1/30/2007,4:00,-15.4,,15.1,13,
1/30/2007,5:00,-15.5,,15.3,20,
1/30/2007,6:00,-15.5,,15.1,25,
1/30/2007,7:00,-15.8,,17.5,26,
1/30/2007,8:00,-16.5,,20.2,10,
1/30/2007,9:00,-16.7,,18.9,18,
1/30/2007,10:00,-16.8,,16.0,12,
1/30/2007,11:00,-17.0,,21.0,8,
1/30/2007,12:00,-16.8,,21.3,12,
1/30/2007,13:00,-16.6,,17.3,21,
1/30/2007,14:00,-16.4,,19.7,27,
1/30/2007,15:00,-16.4,,18.6,24,
1/30/2007,16:00,-16.7,,15.1,32,
1/30/2007,17:00,-17.0,,19.3,40,
1/30/2007,18:00,-17.4,,19.7,25,
1/30/2007,19:00,-18.3,,19.3,25,
1/30/2007,20:00,-19.2,,19.5,34,
1/30/2007,21:00,-20.0,,13.6,34,
1/30/2007,22:00,-20.1,,14.9,32,
1/30/2007,23:00,-20.7,,24.6,31,
1/31/2007,0:00,-20.8,,23.7,46,
1/31/2007,1:00,-20.8,,19.3,46,
1/31/2007,2:00,-20.8,,20.6,41,
1/31/2007,3:00,-20.7,,27.6,53,
1/31/2007,4:00,-20.5,,24.3,50,
1/31/2007,5:00,-20.5,,23.5,50,
1/31/2007,6:00,-20.4,,29.6,57,
1/31/2007,7:00,-20.2,,37.7,55,
1/31/2007,8:00,-19.6,,28.5,52,
1/31/2007,9:00,-19.1,,26.1,58,
1/31/2007,10:00,-18.6,,30.7,56,
1/31/2007,11:00,-18.2,,35.3,57,
1/31/2007,12:00,-17.7,,39.2,55,
1/31/2007,13:00,-17.1,,32.4,64,
1/31/2007,14:00,-16.6,,30.0,64,
1/31/2007,15:00,-16.7,,37.9,65,
1/31/2007,16:00,-16.2,,39.2,67,
1/31/2007,17:00,-15.9,,27.4,69,
1/31/2007,18:00,-16.0,,33.3,73,
1/31/2007,19:00,-15.8,,31.8,60,
1/31/2007,20:00,-15.8,,37.7,73,
1/31/2007,21:00,-15.9,,27.4,86,
1/31/2007,22:00,-15.7,,19.7,79,
1/31/2007,23:00,-15.4,,15.8,81,
2/1/2007,0:00,-15.2,,9.6,82,
2/1/2007,1:00,-14.9,,0.2,84,
2/1/2007,2:00,-15.4,,0.2,54,
2/1/2007,3:00,-16.0,,0.2,106,
2/1/2007,4:00,-15.4,,0.2,231,